Regional Weather Roundup
Issued by NWS

Home | Current Version | Previous Version | Graphics & Text | Print | Product List | Glossary On
Versions: 1 2 3 4 5 6 7 8 9 10 11 12 13 14 15 16 17 18 19 20 21 22 23 24 25 26 27 28 29 30 31 32 33 34 35 36 37 38 39 40 41 42 43 44 45 46 47 48 49 50
000
ASUS43 KFSD 020010
RWRSD

WEATHER ROUNDUP FOR SOUTH DAKOTA
NATIONAL WEATHER SERVICE SIOUX FALLS SD
600 PM CST SUN FEB 01 2015

NOTE: "FAIR" INDICATES FEW OR NO CLOUDS BELOW 12,000 FEET WITH NO
SIGNIFICANT WEATHER AND/OR OBSTRUCTIONS TO VISIBILITY.


SDZ001>005-009-010-012>017-020100-
NORTHWEST AND NORTH CENTRAL SOUTH DAKOTA

CITY           SKY/WX    TMP DP  RH WIND       PRES   REMARKS
BUFFALO          N/A     11   3  70 SW7       30.10F WCI   0
FAITH            N/A      5  -3  69 CALM      30.25F
MOBRIDGE       CLEAR      3 -11  52 NW3       30.32F
$$

SDZ012>016-024>037-041>051-057-063-072>074-020100-
SOUTHWEST AND SOUTH CENTRAL SOUTH DAKOTA

CITY           SKY/WX    TMP DP  RH WIND       PRES   REMARKS
RAPID CTY ARPT CLEAR     10   5  80 SE5       30.21F WCI   2
PIERRE         CLEAR      2 -10  57 NW7       30.36F WCI -11
CUSTER         CLEAR     14   3  61 SW7       30.03S WCI   4
ELLSWORTH AFB  CLEAR     10   4  80 SE8       30.19F WCI  -3
PHILIP         CLEAR      9  -1  64 N3        30.31F
PINE RIDGE     CLEAR     11   3  70 CALM      30.22F
WINNER         FAIR       2  -5  72 NW7       30.35S WCI -11
$$

SDZ004>011-016>023-039-040-020100-
NORTHEAST SOUTH DAKOTA

CITY           SKY/WX    TMP DP  RH WIND       PRES   REMARKS
ABERDEEN       CLEAR      4  -9  55 N8        30.40R WCI  -9
WATERTOWN      CLEAR      2  -8  63 N13       30.29S WCI -15
SISSETON         N/A      3  -9  57 N13       30.37S WCI -14
$$

SDZ017-020-022-023-036>040-048>070-020100-
SOUTHEAST SOUTH DAKOTA

CITY           SKY/WX    TMP DP  RH WIND       PRES   REMARKS
SIOUX FALLS    PTCLDY     6   0  76 N16       30.28R WCI -12
HURON          CLEAR      2  -7  66 N10       30.38F WCI -14
CHAMBERLAIN    CLEAR      2  -6  69 NW9       30.38R WCI -13
MITCHELL       CLEAR      3  -6  66 N13       30.38S WCI -14
YANKTON        PTCLDY     3  -2  78 NW17      30.35R WCI -17
$$

ABBREVIATIONS USED IN REMARKS
   TC - TEMPERATURE IN CELSIUS
  WCI - WIND CHILL INDEX
   HX - HEAT INDEX
  VSB - VISIBILITY




USA.gov is the U.S. government's official web portal to all federal, state and local government web resources and services.